QPF
0.04 0.03 0.02 0.04 0.03 0.04 0.06 0.07 0.08 0.09 0.08 0.09 0.08 0.06 0.04 0.03 0.02 0.02 0.02 0.01 0.01 0.02 0.03 0.03 0.03 0.02 0.02 0.04 0.05 0.05 0.06 0.06 0.05 0.05 0.05 0.04 0.04 0.04 0.05 0.06 0.07 0.07 0.08
0.02 0.01 0.01 0.01 0.01 0.01 0.03 0.04 0.04 0.05 0.04 0.04 0.05 0.04 0.03 0.02 0.01 0.01 0.01 0.01 0.01 0.01 0.01 0.02 0.02 0.02 0.02 0.02 0.03 0.04 0.04 0.04 0.04 0.05 0.05 0.04 0.03 0.02 0.02 0.04 0.06 0.07 0.10
0.01 0.01 0.01 0.01 0.01 0.01 0.02 0.02 0.01 0.02 0.02 0.02 0.02 0.02 0.01 0.01 0.01 0.01 0.00 0.00 0.00 0.01 0.01 0.01 0.02 0.02 0.02 0.02 0.03 0.04 0.04 0.03 0.03 0.04 0.06 0.06 0.04 0.03 0.02 0.02 0.04 0.06 0.09
0.00 0.01 0.01 0.01 0.01 0.01 0.01 0.01 0.01 0.01 0.02 0.01 0.01 0.01 0.01 0.01 0.01 0.00 0.00 0.00 0.01 0.01 0.00 0.00 0.01 0.02 0.02 0.02 0.02 0.02 0.03 0.03 0.03 0.02 0.03 0.05 0.05 0.05 0.04 0.03 0.03 0.04 0.05
0.00 0.00 0.00 0.01 0.01 0.00 0.00 0.00 0.00 0.01 0.01 0.01 0.01 0.01 0.00 0.00 0.00 0.00 0.00 0.00 0.00 0.00 0.00 0.00 0.00 0.01 0.01 0.01 0.01 0.01 0.02 0.02 0.02 0.02 0.02 0.02 0.03 0.04 0.04 0.04 0.03 0.03 0.03
0.00 0.01 0.00 0.00 0.01 0.01 0.00 0.00 0.00 0.00 0.00 0.00 0.00 0.00 0.00 0.00 0.00 0.00 0.00 0.00 0.00 0.00 0.00 0.00 0.00 0.00 0.00 0.00 0.00 0.01 0.01 0.01 0.01 0.02 0.02 0.01 0.01 0.02 0.03 0.03 0.03 0.03 0.03
0.00 0.00 0.00 0.00 0.00 0.00 0.00 0.00 0.00 0.00 0.00 0.00 0.00 0.00 0.00 0.00 0.00 0.00 0.00 0.00 0.00 0.00 0.00 0.00 0.00 0.00 0.00 0.00 0.00 0.01 0.01 0.01 0.01 0.02 0.01 0.01 0.01 0.01 0.01 0.01 0.02 0.02 0.02
0.00 0.00 0.00 0.00 0.01 0.01 0.00 0.00 0.00 0.00 0.00 0.00 0.00 0.00 0.00 0.00 0.00 0.00 0.00 0.00 0.00 0.00 0.00 0.00 0.00 0.00 0.00 0.00 0.00 0.00 0.01 0.01 0.02 0.01 0.02 0.02 0.01 0.01 0.01 0.01 0.02 0.02 0.02
0.00 0.00 0.00 0.00 0.00 0.00 0.00 0.00 0.00 0.00 0.00 0.00 0.00 0.00 0.00 0.00 0.00 0.00 0.00 0.00 0.00 0.00 0.00 0.00 0.00 0.00 0.00 0.00 0.00 0.00 0.00 0.00 0.00 0.00 0.01 0.01 0.01 0.01 0.01 0.01 0.01 0.02 0.02
0.00 0.00 0.00 0.00 0.00 0.00 0.00 0.00 0.00 0.00 0.00 0.00 0.00 0.00 0.00 0.00 0.00 0.00 0.00 0.00 0.00 0.00 0.00 0.00 0.00 0.00 0.00 0.00 0.00 0.00 0.00 0.00 0.00 0.00 0.00 0.00 0.00 0.00 0.01 0.01 0.01 0.02 0.02
0.00 0.00 0.00 0.00 0.00 0.00 0.00 0.00 0.00 0.00 0.00 0.00 0.00 0.00 0.00 0.00 0.00 0.00 0.00 0.00 0.00 0.00 0.00 0.00 0.00 0.00 0.00 0.00 0.00 0.00 0.00 0.00 0.00 0.00 0.00 0.00 0.00 0.01 0.01 0.01 0.01 0.01 0.02
0.00 0.00 0.00 0.00 0.00 0.00 0.00 0.00 0.00 0.00 0.00 0.00 0.00 0.00 0.00 0.00 0.00 0.00 0.00 0.00 0.00 0.00 0.00 0.00 0.00 0.00 0.00 0.00 0.00 0.00 0.00 0.00 0.00 0.01 0.01 0.01 0.01 0.01 0.01 0.01 0.01 0.01 0.01
0.00 0.00 0.00 0.00 0.00 0.00 0.00 0.00 0.00 0.00 0.00 0.00 0.00 0.00 0.00 0.00 0.00 0.00 0.00 0.00 0.00 0.00 0.00 0.00 0.00 0.00 0.00 0.00 0.00 0.00 0.00 0.00 0.00 0.00 0.00 0.00 0.00 0.01 0.01 0.01 0.01 0.01 0.01
0.00 0.00 0.00 0.00 0.00 0.00 0.00 0.00 0.00 0.00 0.00 0.00 0.00 0.00 0.00 0.00 0.00 0.00 0.00 0.00 0.00 0.00 0.00 0.00 0.00 0.00 0.00 0.00 0.00 0.00 0.00 0.00 0.00 0.00 0.00 0.00 0.00 0.01 0.01 0.01 0.01 0.01 0.01
0.00 0.00 0.00 0.00 0.00 0.00 0.00 0.00 0.00 0.00 0.00 0.00 0.00 0.00 0.00 0.00 0.00 0.00 0.00 0.00 0.00 0.00 0.00 0.00 0.00 0.00 0.00 0.00 0.00 0.00 0.00 0.00 0.00 0.00 0.00 0.00 0.00 0.00 0.00 0.00 0.01 0.01 0.02
0.00 0.00 0.00 0.00 0.00 0.00 0.00 0.00 0.00 0.00 0.00 0.00 0.00 0.00 0.00 0.00 0.00 0.00 0.00 0.00 0.00 0.00 0.00 0.00 0.00 0.00 0.00 0.00 0.00 0.00 0.00 0.00 0.00 0.00 0.00 0.00 0.00 0.00 0.00 0.00 0.00 0.00 0.01
0.00 0.00 0.00 0.00 0.00 0.00 0.00 0.00 0.00 0.00 0.00 0.00 0.00 0.00 0.00 0.00 0.00 0.00 0.00 0.00 0.00 0.00 0.00 0.00 0.00 0.00 0.00 0.00 0.00 0.00 0.00 0.00 0.00 0.00 0.00 0.00 0.00 0.00 0.00 0.01 0.00 0.00 0.00
0.00 0.00 0.00 0.00 0.00 0.00 0.00 0.00 0.00 0.00 0.00 0.00 0.00 0.00 0.00 0.00 0.00 0.00 0.00 0.00 0.00 0.00 0.00 0.00 0.00 0.00 0.00 0.00 0.00 0.00 0.00 0.00 0.00 0.00 0.00 0.00 0.01 0.00 0.00 0.01 0.01 0.02 0.02
0.00 0.00 0.00 0.00 0.00 0.00 0.00 0.00 0.00 0.00 0.00 0.00 0.00 0.00 0.00 0.00 0.00 0.00 0.00 0.00 0.00 0.00 0.00 0.00 0.00 0.00 0.00 0.00 0.00 0.00 0.00 0.00 0.00 0.00 0.00 0.00 0.00 0.00 0.00 0.00 0.01 0.01 0.01
0.00 0.00 0.00 0.00 0.00 0.00 0.00 0.00 0.00 0.00 0.00 0.00 0.00 0.00 0.00 0.00 0.00 0.00 0.00 0.00 0.00 0.00 0.00 0.00 0.00 0.00 0.00 0.00 0.00 0.00 0.00 0.00 0.00 0.00 0.00 0.00 0.00 0.00 0.00 0.00 0.00 0.01 0.01
0.00 0.00 0.00 0.00 0.00 0.00 0.00 0.00 0.00 0.00 0.00 0.00 0.00 0.00 0.00 0.00 0.00 0.00 0.00 0.00 0.00 0.00 0.00 0.00 0.00 0.00 0.00 0.00 0.00 0.00 0.00 0.00 0.00 0.00 0.00 0.00 0.00 0.00 0.00 0.00 0.00 0.00 0.00
0.00 0.00 0.00 0.00 0.00 0.00 0.00 0.00 0.00 0.00 0.00 0.00 0.00 0.00 0.00 0.00 0.00 0.00 0.00 0.00 0.00 0.00 0.00 0.00 0.01 0.00 0.00 0.00 0.00 0.00 0.00 0.00 0.00 0.00 0.00 0.00 0.00 0.00 0.00 0.00 0.00 0.00 0.00
0.00 0.00 0.00 0.00 0.00 0.00 0.00 0.00 0.00 0.00 0.00 0.00 0.00 0.00 0.00 0.00 0.00 0.00 0.00 0.00 0.00 0.00 0.00 0.00 0.00 0.00 0.00 0.00 0.00 0.00 0.00 0.00 0.00 0.00 0.00 0.00 0.00 0.00 0.00 0.00 0.00 0.00 0.00
0.00 0.00 0.00 0.00 0.00 0.00 0.00 0.00 0.00 0.00 0.00 0.00 0.00 0.00 0.00 0.00 0.00 0.00 0.00 0.00 0.00 0.00 0.00 0.00 0.00 0.00 0.00 0.00 0.00 0.00 0.00 0.00 0.00 0.00 0.00 0.00 0.00 0.00 0.00 0.01 0.01 0.01 0.01
0.00 0.00 0.00 0.00 0.00 0.00 0.00 0.00 0.00 0.00 0.00 0.00 0.00 0.00 0.00 0.00 0.00 0.00 0.00 0.00 0.00 0.00 0.00 0.00 0.00 0.00 0.00 0.00 0.00 0.00 0.00 0.00 0.00 0.00 0.00 0.00 0.00 0.01 0.01 0.01 0.01 0.01 0.02
0.00 0.00 0.00 0.00 0.00 0.00 0.00 0.00 0.00 0.01 0.00 0.00 0.00 0.00 0.00 0.00 0.00 0.00 0.00 0.00 0.00 0.00 0.00 0.00 0.00 0.00 0.00 0.00 0.00 0.00 0.00 0.00 0.00 0.00 0.00 0.00 0.01 0.01 0.01 0.01 0.01 0.01 0.02
MSLP
1015.79 1015.87 1015.93 1015.98 1016.03 1016.11 1016.22 1016.39 1016.62 1016.90 1017.20 1017.51 1017.81 1018.08 1018.33 1018.55 1018.75 1018.94 1019.14 1019.35 1019.55 1019.73 1019.89 1020.00 1020.06 1020.07 1020.03 1019.95 1019.86 1019.78 1019.72 1019.69 1019.69 1019.71 1019.74 1019.76 1019.75 1019.71 1019.62 1019.50 1019.34 1019.18 1019.04
1015.94 1016.06 1016.15 1016.21 1016.26 1016.33 1016.44 1016.61 1016.85 1017.15 1017.48 1017.81 1018.12 1018.38 1018.60 1018.76 1018.90 1019.03 1019.17 1019.33 1019.51 1019.71 1019.91 1020.08 1020.21 1020.28 1020.29 1020.24 1020.15 1020.03 1019.92 1019.83 1019.76 1019.72 1019.69 1019.68 1019.65 1019.60 1019.51 1019.39 1019.24 1019.07 1018.92
1016.00 1016.21 1016.36 1016.48 1016.56 1016.65 1016.77 1016.95 1017.20 1017.51 1017.85 1018.19 1018.49 1018.74 1018.93 1019.05 1019.12 1019.19 1019.27 1019.38 1019.54 1019.74 1019.97 1020.19 1020.38 1020.50 1020.56 1020.54 1020.45 1020.31 1020.16 1020.01 1019.88 1019.78 1019.70 1019.64 1019.59 1019.52 1019.43 1019.31 1019.17 1019.01 1018.85
1015.87 1016.19 1016.46 1016.66 1016.82 1016.96 1017.11 1017.32 1017.58 1017.89 1018.24 1018.58 1018.89 1019.13 1019.30 1019.38 1019.42 1019.43 1019.45 1019.52 1019.65 1019.84 1020.07 1020.32 1020.54 1020.71 1020.80 1020.81 1020.74 1020.60 1020.42 1020.23 1020.05 1019.90 1019.78 1019.69 1019.61 1019.52 1019.42 1019.30 1019.15 1018.99 1018.83
1015.48 1015.94 1016.34 1016.66 1016.92 1017.14 1017.35 1017.59 1017.87 1018.20 1018.56 1018.92 1019.24 1019.49 1019.65 1019.73 1019.74 1019.72 1019.71 1019.74 1019.83 1019.99 1020.21 1020.45 1020.69 1020.88 1021.00 1021.03 1020.97 1020.85 1020.67 1020.46 1020.26 1020.09 1019.94 1019.81 1019.70 1019.60 1019.49 1019.35 1019.20 1019.02 1018.85
1014.84 1015.43 1015.97 1016.42 1016.79 1017.10 1017.39 1017.67 1017.99 1018.35 1018.74 1019.12 1019.47 1019.74 1019.93 1020.03 1020.04 1020.02 1019.99 1019.98 1020.04 1020.16 1020.34 1020.56 1020.78 1020.97 1021.10 1021.16 1021.13 1021.02 1020.86 1020.67 1020.47 1020.29 1020.13 1019.98 1019.86 1019.73 1019.60 1019.44 1019.27 1019.08 1018.89
1014.00 1014.71 1015.36 1015.94 1016.43 1016.83 1017.19 1017.54 1017.91 1018.31 1018.73 1019.15 1019.54 1019.86 1020.09 1020.23 1020.28 1020.27 1020.23 1020.21 1020.23 1020.30 1020.43 1020.61 1020.79 1020.97 1021.10 1021.16 1021.16 1021.09 1020.97 1020.81 1020.63 1020.46 1020.30 1020.16 1020.02 1019.88 1019.72 1019.55 1019.35 1019.14 1018.92
1013.10 1013.87 1014.61 1015.29 1015.87 1016.36 1016.80 1017.22 1017.63 1018.08 1018.54 1019.01 1019.45 1019.82 1020.12 1020.31 1020.41 1020.43 1020.40 1020.37 1020.35 1020.38 1020.46 1020.58 1020.72 1020.86 1020.98 1021.05 1021.07 1021.03 1020.95 1020.84 1020.70 1020.56 1020.42 1020.28 1020.14 1019.99 1019.82 1019.62 1019.41 1019.17 1018.93
1012.23 1013.03 1013.83 1014.56 1015.22 1015.78 1016.29 1016.76 1017.23 1017.72 1018.22 1018.74 1019.22 1019.66 1020.02 1020.27 1020.42 1020.48 1020.47 1020.44 1020.40 1020.39 1020.41 1020.47 1020.56 1020.66 1020.76 1020.83 1020.86 1020.86 1020.82 1020.75 1020.66 1020.56 1020.44 1020.32 1020.19 1020.03 1019.85 1019.65 1019.42 1019.17 1018.91
1011.50 1012.29 1013.10 1013.87 1014.56 1015.18 1015.74 1016.26 1016.78 1017.31 1017.85 1018.40 1018.93 1019.41 1019.82 1020.12 1020.32 1020.42 1020.44 1020.41 1020.37 1020.32 1020.30 1020.31 1020.36 1020.42 1020.48 1020.54 1020.58 1020.60 1020.59 1020.55 1020.50 1020.44 1020.35 1020.25 1020.14 1019.99 1019.81 1019.61 1019.37 1019.12 1018.85
1010.94 1011.71 1012.50 1013.28 1013.99 1014.65 1015.24 1015.81 1016.36 1016.92 1017.49 1018.06 1018.61 1019.12 1019.56 1019.90 1020.13 1020.27 1020.32 1020.30 1020.26 1020.20 1020.16 1020.14 1020.14 1020.16 1020.20 1020.24 1020.27 1020.29 1020.29 1020.28 1020.26 1020.22 1020.16 1020.09 1019.99 1019.86 1019.70 1019.50 1019.28 1019.03 1018.77
1010.53 1011.26 1012.04 1012.80 1013.52 1014.20 1014.83 1015.42 1016.01 1016.59 1017.17 1017.75 1018.31 1018.82 1019.27 1019.62 1019.88 1020.04 1020.12 1020.13 1020.10 1020.05 1020.01 1019.97 1019.95 1019.95 1019.95 1019.96 1019.98 1019.98 1019.98 1019.97 1019.96 1019.93 1019.90 1019.85 1019.77 1019.67 1019.53 1019.36 1019.15 1018.92 1018.67
1010.19 1010.90 1011.65 1012.40 1013.13 1013.82 1014.48 1015.10 1015.71 1016.31 1016.90 1017.48 1018.02 1018.52 1018.95 1019.31 1019.57 1019.75 1019.86 1019.90 1019.90 1019.88 1019.85 1019.82 1019.80 1019.78 1019.76 1019.74 1019.72 1019.70 1019.68 1019.66 1019.63 1019.61 1019.59 1019.56 1019.51 1019.43 1019.33 1019.19 1019.01 1018.80 1018.56
1009.84 1010.53 1011.27 1012.02 1012.75 1013.46 1014.15 1014.80 1015.43 1016.05 1016.64 1017.20 1017.73 1018.20 1018.61 1018.95 1019.21 1019.41 1019.54 1019.62 1019.66 1019.69 1019.69 1019.68 1019.67 1019.64 1019.61 1019.56 1019.51 1019.45 1019.39 1019.34 1019.30 1019.28 1019.26 1019.24 1019.22 1019.17 1019.10 1018.99 1018.85 1018.66 1018.44
1009.41 1010.10 1010.84 1011.59 1012.33 1013.07 1013.78 1014.47 1015.13 1015.75 1016.35 1016.90 1017.40 1017.85 1018.23 1018.55 1018.81 1019.01 1019.17 1019.29 1019.38 1019.45 1019.50 1019.53 1019.53 1019.51 1019.46 1019.39 1019.30 1019.20 1019.11 1019.03 1018.96 1018.93 1018.91 1018.91 1018.91 1018.90 1018.86 1018.78 1018.66 1018.50 1018.29
1008.88 1009.58 1010.32 1011.07 1011.84 1012.60 1013.34 1014.06 1014.75 1015.40 1016.00 1016.55 1017.03 1017.45 1017.81 1018.11 1018.36 1018.57 1018.75 1018.91 1019.05 1019.16 1019.26 1019.32 1019.34 1019.32 1019.27 1019.17 1019.05 1018.92 1018.79 1018.68 1018.60 1018.56 1018.55 1018.56 1018.58 1018.60 1018.59 1018.54 1018.44 1018.28 1018.08
1008.28 1008.99 1009.73 1010.49 1011.27 1012.05 1012.83 1013.58 1014.30 1014.98 1015.59 1016.14 1016.62 1017.02 1017.37 1017.65 1017.90 1018.11 1018.31 1018.49 1018.66 1018.81 1018.94 1019.02 1019.06 1019.05 1018.98 1018.87 1018.72 1018.57 1018.41 1018.29 1018.20 1018.15 1018.15 1018.18 1018.22 1018.26 1018.27 1018.23 1018.14 1017.99 1017.77
1007.66 1008.38 1009.12 1009.89 1010.68 1011.49 1012.29 1013.07 1013.82 1014.52 1015.16 1015.71 1016.19 1016.59 1016.92 1017.20 1017.44 1017.65 1017.85 1018.04 1018.22 1018.38 1018.52 1018.62 1018.66 1018.65 1018.57 1018.45 1018.29 1018.12 1017.96 1017.83 1017.74 1017.70 1017.71 1017.76 1017.82 1017.87 1017.89 1017.85 1017.75 1017.58 1017.35
1007.13 1007.84 1008.58 1009.35 1010.15 1010.96 1011.78 1012.58 1013.36 1014.08 1014.74 1015.31 1015.79 1016.19 1016.52 1016.78 1017.01 1017.20 1017.39 1017.57 1017.74 1017.89 1018.02 1018.11 1018.14 1018.11 1018.03 1017.90 1017.74 1017.57 1017.42 1017.30 1017.22 1017.20 1017.23 1017.29 1017.36 1017.41 1017.42 1017.38 1017.25 1017.06 1016.79
1006.73 1007.44 1008.17 1008.93 1009.72 1010.53 1011.35 1012.17 1012.96 1013.70 1014.37 1014.95 1015.44 1015.84 1016.16 1016.41 1016.62 1016.79 1016.94 1017.09 1017.23 1017.35 1017.44 1017.50 1017.51 1017.47 1017.38 1017.25 1017.10 1016.95 1016.81 1016.72 1016.67 1016.67 1016.71 1016.77 1016.84 1016.88 1016.87 1016.79 1016.64 1016.40 1016.09
1006.50 1007.19 1007.90 1008.65 1009.43 1010.23 1011.05 1011.86 1012.65 1013.39 1014.06 1014.65 1015.14 1015.53 1015.84 1016.07 1016.25 1016.38 1016.50 1016.59 1016.68 1016.75 1016.80 1016.82 1016.80 1016.75 1016.66 1016.54 1016.41 1016.28 1016.18 1016.11 1016.08 1016.10 1016.14 1016.20 1016.25 1016.27 1016.22 1016.10 1015.90 1015.62 1015.27
1006.40 1007.08 1007.78 1008.51 1009.27 1010.06 1010.85 1011.65 1012.42 1013.14 1013.80 1014.37 1014.85 1015.23 1015.52 1015.72 1015.86 1015.95 1016.02 1016.06 1016.08 1016.10 1016.10 1016.08 1016.04 1015.98 1015.90 1015.80 1015.70 1015.61 1015.54 1015.49 1015.49 1015.50 1015.54 1015.57 1015.59 1015.56 1015.46 1015.29 1015.04 1014.72 1014.33
1006.40 1007.06 1007.76 1008.47 1009.20 1009.96 1010.72 1011.48 1012.21 1012.90 1013.53 1014.07 1014.52 1014.87 1015.13 1015.30 1015.40 1015.45 1015.46 1015.45 1015.42 1015.39 1015.35 1015.31 1015.25 1015.19 1015.13 1015.06 1014.99 1014.94 1014.89 1014.87 1014.86 1014.87 1014.87 1014.86 1014.82 1014.73 1014.57 1014.35 1014.06 1013.70 1013.28
1006.40 1007.07 1007.76 1008.45 1009.16 1009.88 1010.60 1011.30 1011.98 1012.62 1013.19 1013.69 1014.10 1014.41 1014.63 1014.77 1014.83 1014.84 1014.81 1014.76 1014.69 1014.62 1014.56 1014.50 1014.45 1014.40 1014.36 1014.33 1014.30 1014.27 1014.24 1014.22 1014.19 1014.16 1014.11 1014.03 1013.92 1013.75 1013.54 1013.26 1012.93 1012.56 1012.15
1006.38 1007.05 1007.73 1008.41 1009.09 1009.76 1010.43 1011.07 1011.68 1012.24 1012.75 1013.18 1013.54 1013.81 1013.99 1014.09 1014.13 1014.11 1014.05 1013.97 1013.88 1013.80 1013.73 1013.67 1013.64 1013.61 1013.60 1013.60 1013.59 1013.57 1013.55 1013.50 1013.43 1013.34 1013.21 1013.05 1012.85 1012.61 1012.34 1012.02 1011.68 1011.31 1010.93
1006.30 1006.98 1007.65 1008.32 1008.96 1009.59 1010.18 1010.75 1011.28 1011.76 1012.19 1012.56 1012.85 1013.07 1013.22 1013.29 1013.31 1013.27 1013.20 1013.11 1013.02 1012.95 1012.88 1012.84 1012.83 1012.83 1012.84 1012.85 1012.85 1012.83 1012.77 1012.68 1012.54 1012.36 1012.14 1011.89 1011.60 1011.29 1010.96 1010.63 1010.29 1009.96 1009.63
Thickness
5726 5723 5721 5720 5717 5715 5713 5712 5711 5709 5709 5710 5710 5708 5707 5707 5706 5705 5702 5702 5701 5700 5700 5702 5699 5700 5701 5700 5701 5701 5702 5702 5703 5704 5705 5707 5709 5710 5710 5711 5712 5714 5714
5723 5721 5719 5718 5716 5713 5711 5710 5709 5708 5708 5707 5706 5705 5704 5704 5703 5701 5698 5697 5697 5696 5698 5695 5697 5696 5695 5694 5695 5694 5697 5697 5698 5698 5698 5700 5702 5703 5707 5707 5708 5709 5710
5725 5722 5719 5717 5716 5713 5711 5711 5708 5706 5705 5704 5705 5702 5701 5701 5700 5697 5696 5694 5693 5692 5691 5691 5691 5690 5692 5691 5689 5689 5689 5690 5691 5692 5692 5692 5694 5697 5700 5701 5702 5702 5703
5731 5726 5722 5719 5717 5715 5713 5709 5707 5704 5703 5702 5703 5701 5700 5698 5695 5695 5694 5692 5690 5689 5688 5687 5686 5686 5688 5685 5686 5685 5685 5684 5686 5687 5687 5687 5688 5688 5691 5695 5697 5697 5697
5736 5730 5727 5722 5720 5717 5714 5710 5706 5703 5701 5700 5699 5698 5698 5696 5694 5692 5689 5689 5687 5685 5684 5683 5682 5681 5682 5680 5679 5679 5680 5681 5681 5682 5683 5682 5682 5684 5683 5684 5687 5690 5693
5740 5735 5731 5726 5722 5719 5716 5711 5706 5703 5701 5699 5698 5696 5693 5692 5690 5688 5688 5688 5686 5684 5681 5680 5678 5678 5677 5675 5675 5674 5675 5674 5673 5675 5677 5677 5678 5678 5679 5678 5679 5681 5686
5743 5737 5732 5727 5723 5719 5716 5712 5707 5702 5700 5698 5696 5694 5692 5689 5688 5688 5686 5685 5685 5683 5678 5678 5675 5674 5672 5671 5670 5670 5670 5669 5668 5668 5670 5672 5673 5673 5673 5673 5674 5675 5679
5747 5742 5736 5731 5726 5722 5717 5713 5708 5704 5701 5698 5695 5693 5691 5692 5690 5686 5686 5684 5683 5681 5676 5673 5672 5671 5669 5669 5667 5668 5666 5664 5664 5664 5663 5664 5667 5667 5667 5666 5666 5667 5671
5750 5745 5741 5736 5730 5725 5720 5716 5710 5705 5702 5699 5695 5692 5691 5689 5687 5684 5683 5683 5679 5678 5674 5672 5670 5668 5667 5665 5664 5664 5661 5660 5661 5661 5660 5660 5661 5661 5661 5661 5660 5658 5659
5754 5749 5745 5739 5734 5729 5724 5719 5713 5707 5703 5699 5696 5694 5691 5688 5685 5684 5681 5679 5676 5674 5672 5671 5669 5666 5665 5663 5661 5661 5659 5656 5656 5654 5653 5652 5656 5656 5656 5655 5655 5654 5653
5757 5753 5749 5744 5738 5733 5726 5720 5714 5709 5704 5701 5698 5694 5691 5688 5685 5682 5680 5678 5675 5673 5671 5669 5667 5665 5663 5660 5658 5658 5655 5653 5652 5651 5650 5648 5647 5648 5650 5650 5650 5649 5648
5762 5757 5751 5745 5739 5734 5728 5721 5716 5711 5706 5702 5698 5694 5691 5688 5685 5683 5680 5677 5674 5672 5670 5668 5665 5663 5661 5658 5656 5654 5653 5651 5649 5647 5645 5644 5644 5641 5641 5642 5642 5643 5642
5762 5758 5751 5745 5739 5735 5730 5725 5719 5714 5709 5704 5699 5695 5692 5688 5685 5683 5680 5677 5674 5671 5669 5667 5664 5661 5659 5656 5653 5651 5649 5647 5645 5643 5641 5639 5638 5635 5637 5634 5636 5637 5637
5760 5755 5749 5744 5740 5735 5730 5726 5721 5716 5711 5705 5700 5696 5692 5688 5685 5682 5679 5676 5673 5671 5668 5665 5663 5660 5657 5655 5652 5649 5647 5644 5642 5640 5637 5635 5634 5631 5630 5629 5628 5628 5628
5758 5754 5748 5743 5739 5734 5730 5726 5721 5717 5711 5705 5701 5696 5693 5689 5685 5682 5679 5676 5673 5670 5667 5664 5661 5659 5656 5654 5649 5646 5645 5642 5639 5637 5635 5633 5629 5625 5622 5623 5624 5622 5621
5760 5755 5750 5745 5740 5735 5731 5726 5721 5716 5711 5705 5701 5697 5693 5689 5685 5681 5678 5675 5672 5668 5665 5663 5660 5658 5656 5649 5643 5639 5640 5639 5637 5634 5632 5631 5627 5623 5618 5614 5612 5610 5611
5764 5758 5753 5748 5743 5738 5733 5727 5722 5716 5710 5705 5701 5697 5692 5688 5685 5682 5678 5674 5670 5667 5663 5661 5659 5656 5652 5645 5640 5635 5634 5636 5634 5632 5629 5629 5629 5622 5620 5615 5610 5607 5604
5766 5761 5756 5751 5746 5741 5734 5728 5722 5715 5709 5705 5701 5696 5692 5688 5684 5680 5676 5672 5669 5666 5662 5659 5657 5654 5650 5644 5638 5633 5632 5634 5632 5630 5628 5625 5622 5620 5614 5612 5611 5609 5608
5771 5765 5760 5754 5747 5740 5734 5727 5720 5714 5709 5705 5700 5696 5692 5687 5682 5678 5674 5671 5667 5664 5661 5659 5656 5652 5649 5642 5637 5630 5633 5634 5632 5629 5627 5622 5619 5613 5607 5604 5605 5604 5604
5770 5764 5759 5753 5744 5738 5732 5724 5719 5713 5709 5706 5701 5696 5691 5686 5681 5677 5673 5670 5666 5662 5660 5658 5655 5652 5648 5642 5635 5629 5633 5633 5631 5629 5625 5619 5614 5608 5602 5600 5600 5599 5599
5765 5760 5755 5748 5741 5735 5728 5722 5717 5712 5709 5705 5699 5694 5689 5684 5680 5675 5671 5667 5664 5661 5658 5656 5654 5651 5647 5642 5635 5628 5628 5630 5628 5628 5626 5623 5612 5605 5598 5594 5594 5595 5591
5758 5754 5748 5743 5737 5731 5725 5719 5714 5712 5707 5702 5696 5691 5686 5683 5680 5673 5668 5665 5661 5658 5655 5653 5651 5651 5648 5642 5637 5629 5623 5621 5621 5621 5622 5619 5609 5602 5596 5593 5592 5588 5583
5752 5749 5743 5737 5731 5727 5722 5716 5712 5708 5702 5696 5691 5687 5683 5679 5676 5671 5667 5663 5659 5658 5658 5656 5653 5652 5650 5645 5635 5628 5622 5617 5615 5618 5615 5609 5603 5598 5596 5593 5589 5584 5585
5745 5742 5737 5731 5725 5721 5718 5714 5709 5704 5697 5691 5687 5683 5679 5675 5671 5668 5666 5664 5661 5659 5656 5653 5651 5649 5647 5643 5639 5633 5625 5616 5613 5613 5612 5605 5600 5596 5594 5593 5591 5588 5588
5738 5736 5731 5726 5720 5715 5711 5708 5704 5698 5692 5687 5683 5679 5676 5673 5669 5666 5664 5662 5659 5657 5650 5650 5647 5644 5641 5637 5628 5624 5623 5621 5616 5610 5609 5609 5607 5604 5602 5599 5597 5593 5590
5731 5728 5725 5720 5715 5710 5706 5703 5698 5692 5686 5682 5678 5677 5674 5670 5667 5664 5661 5656 5652 5648 5643 5638 5634 5636 5631 5626 5620 5614 5609 5605 5599 5597 5604 5605 5604 5602 5600 5598 5596 5592 5589